DW6386 Weather Reports


time (UTC)temp
C
wind
direction
speed
KPH
gust
KPH
rain 1hr
cm
rain 24hr
cm
rain mn
cm
humidity
%
barometer
mb
20260905091600 22 113 0.0 0.0 0.00 0.00 0.00 97 1011.3
20260905090052 22 113 0.0 0.0 0.00 0.00 0.00 96 1011.4
20260905084602 22 113 0.0 0.0 0.00 0.00 0.00 97 1011.6
20260905083050 22 113 0.0 0.0 0.00 0.00 0.00 97 1011.7
20260905081549 22 113 0.0 0.0 0.00 0.00 0.00 96 1011.7
20260905074558 22 113 0.0 0.0 0.00 0.00 0.00 95 1011.8
20260905073052 22 113 0.0 0.0 0.00 0.00 0.00 96 1011.9
20260905071549 22 113 0.0 0.0 0.00 0.00 0.00 96 1011.9
20260905070044 22 113 0.0 0.0 0.00 0.00 0.00 95 1011.9
20260905064543 22 113 0.0 0.0 0.00 0.00 0.00 95 1012.0
20260905063042 23 113 0.0 0.0 0.00 0.00 0.00 94 1012.1
20260905061555 23 113 0.0 0.0 0.00 0.00 0.00 94 1012.0
20260905060058 23 113 0.0 0.0 0.00 0.00 0.00 93 1012.0
20260905054552 23 113 0.0 0.0 0.00 0.00 0.00 93 1012.1
20260905053036 23 113 0.0 0.0 0.00 0.00 0.00 93 1012.2
20260905051537 23 113 0.0 0.0 0.00 0.00 0.00 93 1012.2
20260905050030 23 113 0.0 0.0 0.00 0.00 0.00 92 1012.2
20260905044528 23 103 0.0 0.0 0.00 0.00 0.00 91 1012.2
20260905043027 23 103 0.0 0.0 0.00 0.00 0.00 91 1012.1
20260905041526 23 103 0.0 0.0 0.00 0.00 0.00 91 1012.1
20260905040022 24 103 0.0 0.0 0.00 0.00 0.00 91 1012.2
20260905034523 25 95 0.0 0.0 0.00 0.00 0.00 89 1012.2
20260905033021 25 94 0.0 0.0 0.00 0.00 0.00 88 1012.1
20260905031520 25 94 0.0 0.0 0.00 0.00 0.00 89 1012.2
20260905030020 25 94 0.0 0.0 0.00 0.00 0.00 87 1012.6
20260905024538 25 94 0.0 0.0 0.00 0.00 0.00 86 1012.6
20260905023022 25 94 0.0 0.0 0.00 0.00 0.00 87 1012.8
20260905021518 26 94 0.0 0.0 0.00 0.00 0.00 86 1012.8
20260905020017 26 94 0.0 0.0 0.00 0.00 0.00 85 1012.8
20260905014516 26 94 0.0 0.0 0.00 0.00 0.00 86 1012.8
20260905013018 26 94 0.0 0.0 0.00 0.00 0.00 84 1012.6
20260905011515 26 94 0.0 0.0 0.00 0.00 0.00 83 1012.6
20260905010014 27 94 0.0 0.0 0.00 0.00 0.00 81 1012.4
20260905004514 27 94 0.0 0.0 0.00 0.00 0.00 78 1012.4
20260905003015 28 94 0.0 0.0 0.00 0.00 0.00 77 1012.3
20260905001513 28 94 0.0 0.0 0.00 0.00 0.00 74 1012.2
20260905000013 29 94 0.0 0.0 0.00 0.00 0.00 75 1012.1
20260904234514 30 94 0.0 0.0 0.00 0.00 0.00 72 1012.1
20260904233012 31 94 0.0 0.0 0.00 0.00 0.00 67 1012.1
20260904231511 32 94 0.0 0.0 0.00 0.00 0.00 65 1012.0
20260904230011 32 92 0.0 1.6 0.00 0.00 0.00 62 1011.9
20260904224510 33 84 0.0 1.6 0.00 0.00 0.00 59 1011.7
20260904223010 33 91 0.0 0.0 0.00 0.00 0.00 60 1011.5
20260904221509 33 85 0.0 1.6 0.00 0.00 0.00 58 1011.5
20260904220009 33 79 0.0 3.2 0.00 0.00 0.00 56 1011.5
20260904214507 33 47 0.0 4.8 0.00 0.00 0.00 55 1011.6
20260904213007 34 180 0.0 6.4 0.00 0.00 0.00 53 1011.6
20260904211505 35 265 0.0 3.2 0.00 0.00 0.00 53 1011.8
20260904210004 35 99 0.0 6.4 0.00 0.00 0.00 52 1011.9
20260904204503 35 278 0.0 9.7 0.00 0.00 0.00 51 1012.0
20260904203007 36 94 1.6 8.0 0.00 0.00 0.00 47 1012.2
20260904201626 36 59 0.0 4.8 0.00 0.00 0.00 50 1012.4
20260904200117 36 236 0.0 6.4 0.00 0.00 0.00 50 1012.6
20260904194556 36 148 0.0 4.8 0.00 0.00 0.00 48 1012.9
20260904193053 36 278 0.0 4.8 0.00 0.00 0.00 49 1013.3
20260904191550 36 340 1.6 4.8 0.00 0.00 0.00 51 1013.5
20260904190048 36 34 0.0 1.6 0.00 0.00 0.00 52 1013.6
20260904184547 33 202 0.0 3.2 0.00 0.00 0.00 60 1013.7
20260904183047 31 148 0.0 1.6 0.00 0.00 0.00 61 1014.1
20260904181544 32 151 0.0 0.0 0.00 0.00 0.00 59 1014.3
20260904180045 33 131 1.6 8.0 0.00 0.00 0.00 58 1014.5
20260904174547 35 99 1.6 9.7 0.00 0.00 0.00 57 1014.6
20260904173040 35 78 1.6 6.4 0.00 0.00 0.00 59 1014.6
20260904171605 34 226 3.2 8.0 0.00 0.00 0.00 61 1014.7
20260904170033 33 297 1.6 9.7 0.00 0.00 0.00 62 1014.8
20260904164531 33 252 3.2 8.0 0.00 0.00 0.00 62 1015.0
20260904163045 33 181 0.0 6.4 0.00 0.00 0.00 63 1015.3
20260904161528 33 65 0.0 3.2 0.00 0.00 0.00 63 1015.3
20260904160025 32 250 0.0 4.8 0.00 0.00 0.00 65 1015.5
20260904154521 33 240 0.0 4.8 0.00 0.00 0.00 64 1015.6
20260904153025 32 146 0.0 4.8 0.00 0.00 0.00 66 1015.5
20260904151528 31 126 0.0 4.8 0.00 0.00 0.00 68 1015.6
20260904150014 31 136 0.0 1.6 0.00 0.00 0.00 70 1015.5
20260904144509 30 231 0.0 3.2 0.00 0.00 0.00 70 1015.5
20260904143004 30 224 0.0 4.8 0.00 0.00 0.00 74 1015.3
20260904141501 29 196 0.0 4.8 0.00 0.00 0.00 76 1015.4
20260904140059 29 257 0.0 3.2 0.00 0.00 0.00 77 1015.4
20260904134558 28 254 0.0 3.2 0.00 0.00 0.00 80 1015.4
20260904133105 28 268 0.0 3.2 0.00 0.00 0.00 80 1015.4
20260904131552 27 235 0.0 3.2 0.00 0.00 0.00 82 1015.4
20260904130054 27 176 0.0 0.0 0.00 0.00 0.00 88 1015.4
20260904124544 26 124 0.0 0.0 0.00 0.00 0.00 94 1015.4
20260904123043 25 124 0.0 0.0 0.00 0.00 0.00 98 1015.4
20260904121537 23 124 0.0 0.0 0.00 0.00 0.00 98 1015.2
20260904120044 22 124 0.0 0.0 0.00 0.00 0.00 98 1015.1
20260904114535 22 124 0.0 0.0 0.00 0.00 0.00 98 1015.0
20260904113036 21 124 0.0 0.0 0.00 0.00 0.00 97 1015.0
20260904111531 22 124 0.0 0.0 0.00 0.00 0.00 98 1014.7
20260904110030 21 124 0.0 0.0 0.00 0.00 0.00 97 1014.5
20260904104530 22 124 0.0 0.0 0.00 0.00 0.00 97 1014.3
20260904103028 22 124 0.0 0.0 0.00 0.00 0.00 97 1014.1
20260904101531 22 124 0.0 0.0 0.00 0.00 0.00 97 1014.0
20260904100026 22 124 0.0 0.0 0.00 0.00 0.00 97 1014.2
20260904094524 22 124 0.0 0.0 0.00 0.00 0.00 97 1014.1
20260904093024 22 124 0.0 0.0 0.00 0.00 0.00 97 1014.0